"Pseudo-MPEC" for P12pBgy

Created 2026 Sep 5 9:35:09 UT using Find_Orb

Click here for an explanation of pseudo-MPECs

 
 Astrometry: 
     P12pBgy*0C2026 09 04.41803023 06 24.357-28 08 44.38   ~94CK 21.45wXNEOCPF51
     P12pBgy 0C2026 09 04.42866823 06 24.258-28 08 53.52   ~94CK 21.53wXNEOCPF51
     P12pBgy 0C2026 09 04.43935423 06 24.130-28 09 02.84   ~94CK 21.70wXNEOCPF51
     P12pBgy 0C2026 09 04.45015423 06 24.039-28 09 11.85   ~94CK 21.84wXNEOCPF51
     P12pBgy 0C2026 09 04.52096723 06 23.339-28 10 10.75   ~94MZ 22.21GVNEOCPF51
     P12pBgy 0C2026 09 04.52161923 06 23.329-28 10 10.99   ~94MZ 21.62GVNEOCPF51

Station data:
(F51) Pan-STARRS 1, Haleakala  (N20.707234 W156.255910)  US/Hawaii.
   Observers J. Herman, T. Lowe, P. Minguez, A. Schultz, I. Smith. Measurers
   K. Chambers, T. de Boer, J. Fairlamb, H. Gao, M. Huber, C.-C. Lin, E.
   Magnier, Y. Ramanjooloo, R. Wainscoat, R. Weryk. 1.8-m Ritchey-Chrétien +
   CCD.

Orbital elements:  P12pBgy
   Perihelion 2026 Jul 8.054753 +/- 55.2 TT =  1:18:50.6 (JD 2461229.554753)
Epoch 2026 Sep  4.0 TT = JDT 2461287.5   Earth MOID: 0.3263   Ma: 0.0255
M  17.910612778 +/- 16              (J2000 ecliptic)             AutoNEOCP
n   0.309095458 +/- 0.17            Peri.  171.258460 +/- 80
a   2.166411569 +/- 0.795           Node   127.833481 +/- 32
e   0.38115185 +/- 0.179            Incl.   11.799225 +/- 4.5
P   3.18868                H 21.84  G  0.15   U 11.6  SR
q 1.340679771 +/- 0.304    Q 2.992143367 +/- 2.62
From 6 observations 2026 Sept. 4 (2.5 hr); mean residual 0".11
Residuals in arcseconds: 
260904 F51  .02-  .11+    260904 F51  .16-  .17-    260904 F51  .02+  .13-    
260904 F51  .09+  .06+    260904 F51  .09+  .04-    260904 F51  .03-  .17+    

Ephemerides (geocentric):
Date (UTC) HH   RA             Dec           delta  r     elong  mag " sig PA
---- --------  ------------   ------------  ------ ------ -----  --- --------
2026 09 05 10  23 06 22.427   -28 22 13.20  .45766 1.4435 158.3 21.8 79.6  94
2026 09 05 11  23 06 22.348   -28 22 46.52  .45785 1.4437 158.3 21.8 82.9  94
2026 09 05 12  23 06 22.268   -28 23 19.75  .45805 1.4438 158.3 21.8 86.3  94
2026 09 05 13  23 06 22.187   -28 23 52.90  .45824 1.4439 158.3 21.8 89.6  94
2026 09 05 14  23 06 22.106   -28 24 25.97  .45843 1.4441 158.3 21.8 93.0  93
2026 09 05 15  23 06 22.024   -28 24 58.95  .45863 1.4442 158.2 21.8 96.3  93
2026 09 05 16  23 06 21.942   -28 25 31.85  .45882 1.4443 158.2 21.8  100  93
2026 09 05 17  23 06 21.859   -28 26 04.67  .45902 1.4445 158.2 21.8  103  93
2026 09 05 18  23 06 21.776   -28 26 37.41  .45921 1.4446 158.2 21.8  106  93
2026 09 05 19  23 06 21.692   -28 27 10.06  .45941 1.4447 158.2 21.8  110  93
2026 09 05 20  23 06 21.608   -28 27 42.64  .45960 1.4449 158.1 21.8  113  93
2026 09 05 21  23 06 21.523   -28 28 15.13  .45980 1.4450 158.1 21.8  116  93
2026 09 05 22  23 06 21.438   -28 28 47.53  .45999 1.4452 158.1 21.8  120  93
2026 09 05 23  23 06 21.352   -28 29 19.86  .46019 1.4453 158.1 21.8  123  93
2026 09 06 00  23 06 21.266   -28 29 52.10  .46038 1.4454 158.1 21.8  126  92
2026 09 06 01  23 06 21.179   -28 30 24.25  .46058 1.4456 158.0 21.8  130  92
2026 09 06 02  23 06 21.092   -28 30 56.33  .46078 1.4457 158.0 21.8  133  92
2026 09 06 03  23 06 21.005   -28 31 28.32  .46097 1.4458 158.0 21.8  136  92
2026 09 06 04  23 06 20.917   -28 32 00.23  .46117 1.4460 158.0 21.8  140  92
2026 09 06 05  23 06 20.828   -28 32 32.06  .46137 1.4461 158.0 21.8  143  92
2026 09 06 06  23 06 20.739   -28 33 03.81  .46157 1.4462 157.9 21.8  146  92
2026 09 06 07  23 06 20.650   -28 33 35.47  .46176 1.4464 157.9 21.8  150  92
2026 09 06 08  23 06 20.560   -28 34 07.05  .46196 1.4465 157.9 21.8  153  92
2026 09 06 09  23 06 20.470   -28 34 38.54  .46216 1.4466 157.9 21.8  156  92
2026 09 06 10  23 06 20.380   -28 35 09.96  .46236 1.4468 157.8 21.8  160  92
2026 09 06 11  23 06 20.289   -28 35 41.29  .46256 1.4469 157.8 21.8  163  92
2026 09 06 12  23 06 20.198   -28 36 12.54  .46276 1.4471 157.8 21.8  166  92
2026 09 06 13  23 06 20.106   -28 36 43.70  .46296 1.4472 157.8 21.8  170  92
2026 09 06 14  23 06 20.014   -28 37 14.78  .46315 1.4473 157.8 21.8  173  92
2026 09 06 15  23 06 19.922   -28 37 45.78  .46335 1.4475 157.7 21.8  176  92
2026 09 06 16  23 06 19.829   -28 38 16.70  .46355 1.4476 157.7 21.8  179  92
2026 09 06 17  23 06 19.736   -28 38 47.53  .46375 1.4477 157.7 21.8  183  92
2026 09 06 18  23 06 19.643   -28 39 18.29  .46396 1.4479 157.7 21.8  186  92
2026 09 06 19  23 06 19.549   -28 39 48.95  .46416 1.4480 157.7 21.8  189  92
2026 09 06 20  23 06 19.456   -28 40 19.54  .46436 1.4482 157.6 21.8  193  92
2026 09 06 21  23 06 19.361   -28 40 50.04  .46456 1.4483 157.6 21.8  196  92
2026 09 06 22  23 06 19.267   -28 41 20.46  .46476 1.4484 157.6 21.8  199  92
2026 09 06 23  23 06 19.172   -28 41 50.80  .46496 1.4486 157.6 21.8  203  92
2026 09 07 00  23 06 19.077   -28 42 21.06  .46516 1.4487 157.5 21.8  206  92
2026 09 07 01  23 06 18.982   -28 42 51.23  .46537 1.4488 157.5 21.8  209  92
2026 09 07 02  23 06 18.886   -28 43 21.32  .46557 1.4490 157.5 21.8  212  92
2026 09 07 03  23 06 18.790   -28 43 51.32  .46577 1.4491 157.5 21.8  216  92
2026 09 07 04  23 06 18.694   -28 44 21.25  .46597 1.4492 157.5 21.8  219  92
2026 09 07 05  23 06 18.598   -28 44 51.09  .46618 1.4494 157.4 21.8  222  92
2026 09 07 06  23 06 18.502   -28 45 20.84  .46638 1.4495 157.4 21.8  226  92
2026 09 07 07  23 06 18.405   -28 45 50.52  .46658 1.4497 157.4 21.8  229  92
2026 09 07 08  23 06 18.308   -28 46 20.11  .46679 1.4498 157.4 21.8  232  92
2026 09 07 09  23 06 18.211   -28 46 49.62  .46699 1.4499 157.3 21.8  236  92